QPF
0.00 0.00 0.00 0.00 0.01 0.00 0.00 0.00 0.00 0.00 0.00 0.00 0.00 0.00 0.01 0.00 0.00 0.01 0.01 0.01 0.01 0.01 0.00 0.01 0.01 0.02 0.01 0.02 0.03 0.03 0.03 0.03 0.02 0.01 0.01 0.01 0.02 0.03 0.03 0.03 0.03 0.05 0.05
0.00 0.00 0.00 0.00 0.00 0.00 0.00 0.00 0.00 0.00 0.00 0.00 0.00 0.00 0.00 0.00 0.01 0.01 0.01 0.01 0.00 0.00 0.00 0.01 0.01 0.01 0.01 0.02 0.03 0.05 0.06 0.04 0.03 0.02 0.02 0.02 0.02 0.02 0.03 0.03 0.02 0.03 0.04
0.00 0.00 0.00 0.00 0.00 0.00 0.00 0.00 0.00 0.00 0.00 0.00 0.00 0.00 0.00 0.00 0.00 0.01 0.01 0.01 0.00 0.00 0.00 0.01 0.01 0.01 0.01 0.02 0.02 0.02 0.05 0.05 0.05 0.03 0.02 0.01 0.01 0.02 0.03 0.02 0.02 0.03 0.02
0.00 0.00 0.00 0.00 0.00 0.00 0.00 0.00 0.00 0.00 0.00 0.00 0.01 0.00 0.01 0.01 0.00 0.00 0.00 0.00 0.01 0.00 0.00 0.01 0.01 0.01 0.01 0.01 0.01 0.01 0.02 0.04 0.04 0.03 0.02 0.02 0.01 0.01 0.02 0.03 0.02 0.03 0.02
0.00 0.00 0.00 0.00 0.00 0.00 0.00 0.00 0.00 0.00 0.00 0.00 0.00 0.00 0.01 0.01 0.00 0.00 0.00 0.00 0.01 0.01 0.00 0.00 0.00 0.01 0.01 0.01 0.01 0.01 0.01 0.02 0.03 0.03 0.03 0.02 0.01 0.01 0.02 0.02 0.02 0.02 0.03
0.00 0.00 0.00 0.00 0.00 0.00 0.00 0.00 0.00 0.00 0.00 0.00 0.00 0.01 0.01 0.01 0.01 0.01 0.01 0.01 0.01 0.01 0.01 0.01 0.00 0.01 0.01 0.01 0.01 0.02 0.02 0.02 0.03 0.03 0.03 0.02 0.02 0.02 0.02 0.02 0.02 0.02 0.03
0.00 0.00 0.00 0.00 0.00 0.00 0.00 0.00 0.00 0.00 0.00 0.00 0.00 0.00 0.01 0.01 0.01 0.01 0.01 0.01 0.01 0.01 0.01 0.01 0.00 0.00 0.01 0.01 0.01 0.01 0.01 0.02 0.03 0.03 0.03 0.02 0.02 0.01 0.02 0.02 0.03 0.03 0.03
0.00 0.00 0.00 0.00 0.00 0.00 0.00 0.00 0.00 0.00 0.00 0.00 0.00 0.00 0.00 0.01 0.01 0.01 0.01 0.00 0.00 0.01 0.01 0.00 0.00 0.00 0.00 0.01 0.01 0.00 0.01 0.01 0.01 0.02 0.03 0.03 0.02 0.02 0.02 0.02 0.02 0.02 0.02
0.00 0.00 0.00 0.00 0.00 0.00 0.00 0.00 0.00 0.00 0.00 0.00 0.00 0.00 0.00 0.00 0.01 0.01 0.01 0.01 0.01 0.00 0.00 0.00 0.00 0.00 0.00 0.01 0.01 0.01 0.01 0.01 0.01 0.01 0.01 0.02 0.02 0.01 0.02 0.03 0.03 0.03 0.03
0.00 0.00 0.00 0.00 0.00 0.00 0.00 0.00 0.00 0.00 0.00 0.00 0.00 0.00 0.00 0.00 0.00 0.00 0.01 0.01 0.01 0.01 0.01 0.00 0.01 0.01 0.00 0.01 0.01 0.00 0.00 0.01 0.01 0.01 0.01 0.01 0.01 0.01 0.01 0.03 0.05 0.05 0.05
0.00 0.00 0.00 0.00 0.00 0.00 0.00 0.00 0.00 0.00 0.00 0.00 0.00 0.00 0.00 0.00 0.00 0.00 0.00 0.01 0.01 0.01 0.01 0.01 0.01 0.01 0.01 0.01 0.01 0.00 0.00 0.01 0.01 0.01 0.01 0.01 0.01 0.01 0.01 0.01 0.03 0.06 0.08
0.00 0.00 0.00 0.00 0.00 0.00 0.00 0.00 0.00 0.00 0.00 0.00 0.00 0.00 0.00 0.00 0.00 0.00 0.01 0.01 0.01 0.02 0.02 0.02 0.02 0.01 0.01 0.01 0.01 0.00 0.00 0.01 0.01 0.01 0.01 0.01 0.01 0.01 0.01 0.01 0.01 0.02 0.06
0.00 0.00 0.00 0.00 0.00 0.00 0.00 0.00 0.00 0.00 0.00 0.00 0.00 0.00 0.00 0.00 0.01 0.01 0.01 0.01 0.01 0.01 0.02 0.03 0.03 0.01 0.01 0.01 0.01 0.01 0.01 0.01 0.01 0.02 0.02 0.01 0.01 0.01 0.01 0.01 0.01 0.02 0.03
0.00 0.00 0.00 0.00 0.00 0.00 0.00 0.00 0.00 0.00 0.00 0.00 0.00 0.00 0.00 0.00 0.00 0.01 0.01 0.01 0.01 0.01 0.01 0.01 0.02 0.01 0.01 0.01 0.01 0.01 0.01 0.01 0.01 0.01 0.02 0.02 0.02 0.02 0.02 0.02 0.02 0.02 0.02
0.00 0.00 0.00 0.00 0.00 0.00 0.00 0.00 0.00 0.00 0.00 0.00 0.00 0.00 0.00 0.01 0.01 0.01 0.02 0.02 0.01 0.01 0.01 0.01 0.01 0.01 0.01 0.01 0.01 0.01 0.01 0.01 0.01 0.01 0.01 0.02 0.02 0.02 0.02 0.02 0.03 0.03 0.03
0.00 0.00 0.00 0.00 0.00 0.00 0.00 0.00 0.00 0.00 0.00 0.00 0.00 0.00 0.01 0.02 0.02 0.02 0.02 0.02 0.01 0.01 0.01 0.01 0.01 0.01 0.02 0.02 0.02 0.02 0.02 0.01 0.01 0.01 0.01 0.02 0.02 0.03 0.02 0.02 0.03 0.03 0.04
0.00 0.00 0.00 0.00 0.00 0.00 0.00 0.00 0.00 0.00 0.00 0.00 0.00 0.00 0.00 0.02 0.02 0.02 0.02 0.02 0.01 0.01 0.01 0.01 0.01 0.02 0.02 0.02 0.02 0.02 0.02 0.02 0.02 0.02 0.01 0.01 0.02 0.02 0.02 0.02 0.03 0.03 0.03
0.00 0.00 0.00 0.00 0.00 0.00 0.00 0.00 0.00 0.00 0.00 0.00 0.00 0.00 0.00 0.01 0.02 0.03 0.03 0.03 0.03 0.03 0.02 0.02 0.02 0.02 0.02 0.03 0.03 0.03 0.02 0.02 0.02 0.02 0.02 0.02 0.02 0.02 0.02 0.02 0.03 0.03 0.03
0.00 0.00 0.00 0.00 0.00 0.00 0.00 0.00 0.00 0.00 0.00 0.00 0.00 0.00 0.00 0.01 0.01 0.02 0.03 0.03 0.03 0.03 0.03 0.02 0.02 0.02 0.02 0.03 0.04 0.03 0.03 0.03 0.03 0.02 0.02 0.02 0.02 0.02 0.02 0.03 0.03 0.03 0.03
0.00 0.00 0.00 0.00 0.00 0.00 0.00 0.00 0.00 0.00 0.00 0.00 0.00 0.00 0.00 0.00 0.00 0.01 0.02 0.02 0.02 0.02 0.02 0.02 0.02 0.02 0.02 0.03 0.03 0.04 0.04 0.04 0.03 0.03 0.03 0.03 0.02 0.02 0.03 0.03 0.03 0.03 0.03
0.00 0.00 0.00 0.00 0.00 0.00 0.00 0.00 0.00 0.00 0.00 0.00 0.00 0.00 0.00 0.01 0.01 0.01 0.02 0.02 0.02 0.03 0.03 0.02 0.01 0.02 0.02 0.02 0.03 0.04 0.04 0.03 0.03 0.03 0.03 0.03 0.03 0.03 0.04 0.04 0.04 0.04 0.04
0.00 0.00 0.00 0.00 0.00 0.00 0.00 0.00 0.00 0.00 0.00 0.00 0.00 0.00 0.00 0.00 0.01 0.01 0.02 0.02 0.02 0.03 0.04 0.03 0.01 0.01 0.01 0.02 0.03 0.04 0.04 0.03 0.02 0.03 0.03 0.03 0.03 0.03 0.04 0.04 0.04 0.03 0.03
0.00 0.00 0.00 0.00 0.00 0.00 0.00 0.00 0.00 0.00 0.00 0.00 0.00 0.00 0.00 0.00 0.01 0.02 0.02 0.02 0.03 0.05 0.06 0.04 0.02 0.01 0.01 0.02 0.03 0.04 0.04 0.03 0.02 0.02 0.02 0.03 0.04 0.04 0.04 0.04 0.04 0.03 0.03
0.00 0.00 0.00 0.00 0.00 0.00 0.00 0.00 0.00 0.00 0.00 0.00 0.00 0.00 0.00 0.00 0.01 0.02 0.02 0.03 0.03 0.04 0.06 0.05 0.03 0.03 0.03 0.04 0.03 0.02 0.02 0.02 0.02 0.02 0.02 0.03 0.03 0.04 0.04 0.03 0.03 0.03 0.03
0.00 0.00 0.00 0.00 0.00 0.00 0.00 0.00 0.00 0.00 0.00 0.00 0.00 0.00 0.00 0.00 0.01 0.02 0.02 0.02 0.02 0.03 0.04 0.05 0.06 0.05 0.03 0.02 0.01 0.01 0.01 0.02 0.02 0.03 0.03 0.03 0.03 0.03 0.03 0.03 0.03 0.04 0.04
0.00 0.00 0.00 0.00 0.00 0.00 0.00 0.00 0.00 0.00 0.00 0.00 0.00 0.00 0.00 0.00 0.01 0.02 0.02 0.03 0.02 0.02 0.02 0.03 0.04 0.03 0.01 0.01 0.01 0.00 0.01 0.01 0.02 0.03 0.04 0.04 0.03 0.03 0.04 0.04 0.04 0.04 0.04
MSLP
1021.63 1021.80 1021.96 1022.08 1022.14 1022.15 1022.11 1022.02 1021.93 1021.84 1021.77 1021.73 1021.72 1021.71 1021.69 1021.63 1021.52 1021.34 1021.09 1020.80 1020.47 1020.13 1019.81 1019.51 1019.23 1018.98 1018.74 1018.47 1018.17 1017.80 1017.36 1016.85 1016.27 1015.64 1014.98 1014.32 1013.69 1013.09 1012.54 1012.05 1011.60 1011.20 1010.83
1022.02 1022.22 1022.40 1022.54 1022.63 1022.65 1022.62 1022.55 1022.47 1022.39 1022.33 1022.30 1022.29 1022.29 1022.28 1022.23 1022.13 1021.97 1021.73 1021.44 1021.11 1020.75 1020.40 1020.06 1019.75 1019.46 1019.18 1018.90 1018.59 1018.24 1017.82 1017.34 1016.79 1016.18 1015.53 1014.85 1014.17 1013.51 1012.88 1012.29 1011.75 1011.26 1010.83
1022.37 1022.60 1022.81 1022.97 1023.08 1023.13 1023.12 1023.07 1023.00 1022.94 1022.89 1022.86 1022.86 1022.87 1022.87 1022.83 1022.74 1022.59 1022.38 1022.10 1021.77 1021.41 1021.04 1020.68 1020.34 1020.02 1019.71 1019.41 1019.09 1018.74 1018.34 1017.88 1017.36 1016.77 1016.13 1015.45 1014.74 1014.03 1013.33 1012.66 1012.02 1011.43 1010.90
1022.65 1022.92 1023.17 1023.36 1023.50 1023.57 1023.58 1023.55 1023.50 1023.45 1023.41 1023.39 1023.39 1023.40 1023.40 1023.37 1023.29 1023.16 1022.96 1022.70 1022.39 1022.04 1021.67 1021.31 1020.95 1020.61 1020.28 1019.95 1019.62 1019.26 1018.86 1018.41 1017.91 1017.34 1016.72 1016.05 1015.34 1014.60 1013.86 1013.12 1012.40 1011.72 1011.08
1022.88 1023.20 1023.48 1023.70 1023.87 1023.96 1024.00 1023.99 1023.95 1023.91 1023.87 1023.85 1023.84 1023.84 1023.83 1023.80 1023.73 1023.61 1023.43 1023.19 1022.90 1022.58 1022.23 1021.87 1021.51 1021.16 1020.82 1020.47 1020.11 1019.74 1019.33 1018.88 1018.38 1017.83 1017.22 1016.57 1015.88 1015.15 1014.39 1013.63 1012.86 1012.11 1011.38
1023.05 1023.42 1023.74 1023.99 1024.18 1024.30 1024.35 1024.35 1024.33 1024.29 1024.25 1024.21 1024.19 1024.17 1024.14 1024.09 1024.02 1023.89 1023.73 1023.51 1023.25 1022.96 1022.64 1022.31 1021.96 1021.61 1021.26 1020.89 1020.51 1020.11 1019.68 1019.21 1018.71 1018.17 1017.58 1016.96 1016.29 1015.60 1014.87 1014.11 1013.34 1012.55 1011.76
1023.18 1023.59 1023.94 1024.22 1024.43 1024.56 1024.63 1024.64 1024.62 1024.58 1024.53 1024.48 1024.42 1024.37 1024.31 1024.24 1024.14 1024.01 1023.85 1023.65 1023.42 1023.16 1022.87 1022.57 1022.25 1021.91 1021.55 1021.17 1020.76 1020.33 1019.87 1019.38 1018.86 1018.32 1017.75 1017.16 1016.54 1015.90 1015.22 1014.51 1013.77 1012.99 1012.18
1023.24 1023.69 1024.06 1024.36 1024.59 1024.73 1024.81 1024.84 1024.82 1024.77 1024.71 1024.63 1024.55 1024.46 1024.36 1024.25 1024.12 1023.97 1023.80 1023.61 1023.40 1023.17 1022.91 1022.64 1022.34 1022.02 1021.66 1021.27 1020.84 1020.38 1019.89 1019.37 1018.84 1018.29 1017.74 1017.18 1016.61 1016.03 1015.42 1014.77 1014.09 1013.35 1012.55
1023.22 1023.69 1024.09 1024.40 1024.64 1024.80 1024.89 1024.92 1024.91 1024.86 1024.79 1024.70 1024.59 1024.46 1024.33 1024.18 1024.01 1023.84 1023.65 1023.46 1023.25 1023.03 1022.80 1022.55 1022.27 1021.96 1021.60 1021.20 1020.76 1020.27 1019.76 1019.22 1018.66 1018.11 1017.57 1017.04 1016.52 1015.99 1015.45 1014.88 1014.26 1013.58 1012.83
1023.10 1023.59 1024.00 1024.32 1024.57 1024.74 1024.85 1024.90 1024.90 1024.86 1024.79 1024.69 1024.57 1024.42 1024.26 1024.08 1023.88 1023.68 1023.47 1023.25 1023.04 1022.82 1022.59 1022.34 1022.07 1021.76 1021.41 1021.00 1020.55 1020.05 1019.51 1018.96 1018.40 1017.85 1017.32 1016.81 1016.32 1015.84 1015.35 1014.84 1014.28 1013.66 1012.95
1022.86 1023.36 1023.78 1024.12 1024.38 1024.57 1024.69 1024.77 1024.79 1024.78 1024.73 1024.64 1024.52 1024.37 1024.19 1023.99 1023.77 1023.54 1023.31 1023.07 1022.83 1022.59 1022.34 1022.08 1021.79 1021.47 1021.11 1020.70 1020.24 1019.74 1019.20 1018.65 1018.09 1017.54 1017.02 1016.53 1016.06 1015.60 1015.15 1014.67 1014.16 1013.57 1012.90
1022.52 1023.03 1023.45 1023.80 1024.07 1024.28 1024.43 1024.54 1024.60 1024.62 1024.60 1024.54 1024.45 1024.31 1024.14 1023.94 1023.71 1023.46 1023.19 1022.92 1022.64 1022.37 1022.08 1021.79 1021.47 1021.13 1020.75 1020.33 1019.87 1019.37 1018.85 1018.31 1017.76 1017.23 1016.72 1016.23 1015.77 1015.32 1014.88 1014.41 1013.91 1013.34 1012.70
1022.09 1022.60 1023.03 1023.39 1023.67 1023.90 1024.08 1024.22 1024.32 1024.38 1024.40 1024.39 1024.33 1024.23 1024.08 1023.89 1023.67 1023.40 1023.12 1022.81 1022.49 1022.16 1021.82 1021.47 1021.11 1020.73 1020.33 1019.90 1019.44 1018.95 1018.45 1017.94 1017.42 1016.91 1016.41 1015.94 1015.47 1015.02 1014.56 1014.08 1013.57 1013.01 1012.37
1021.60 1022.12 1022.55 1022.91 1023.21 1023.46 1023.66 1023.82 1023.96 1024.06 1024.12 1024.15 1024.14 1024.08 1023.97 1023.81 1023.59 1023.32 1023.02 1022.68 1022.31 1021.92 1021.52 1021.11 1020.69 1020.26 1019.83 1019.38 1018.93 1018.46 1017.99 1017.51 1017.03 1016.56 1016.09 1015.62 1015.15 1014.69 1014.21 1013.71 1013.17 1012.59 1011.96
1021.09 1021.60 1022.04 1022.41 1022.71 1022.97 1023.18 1023.36 1023.52 1023.64 1023.74 1023.81 1023.84 1023.82 1023.74 1023.60 1023.40 1023.14 1022.82 1022.45 1022.04 1021.59 1021.13 1020.65 1020.17 1019.70 1019.23 1018.77 1018.32 1017.88 1017.44 1017.01 1016.57 1016.14 1015.70 1015.25 1014.79 1014.31 1013.81 1013.28 1012.73 1012.13 1011.50
1020.56 1021.08 1021.52 1021.88 1022.19 1022.44 1022.66 1022.84 1023.00 1023.13 1023.25 1023.33 1023.38 1023.39 1023.34 1023.22 1023.04 1022.78 1022.45 1022.06 1021.61 1021.12 1020.60 1020.07 1019.54 1019.02 1018.52 1018.05 1017.61 1017.19 1016.79 1016.40 1016.01 1015.62 1015.22 1014.79 1014.34 1013.87 1013.36 1012.82 1012.25 1011.65 1011.02
1020.01 1020.54 1020.98 1021.34 1021.64 1021.89 1022.09 1022.25 1022.40 1022.52 1022.62 1022.71 1022.76 1022.77 1022.73 1022.63 1022.45 1022.20 1021.87 1021.47 1020.99 1020.47 1019.92 1019.35 1018.78 1018.23 1017.72 1017.24 1016.81 1016.41 1016.05 1015.70 1015.36 1015.01 1014.65 1014.25 1013.82 1013.35 1012.84 1012.31 1011.74 1011.15 1010.54
1019.44 1019.97 1020.41 1020.78 1021.07 1021.29 1021.47 1021.61 1021.72 1021.82 1021.89 1021.95 1021.98 1021.98 1021.94 1021.83 1021.66 1021.41 1021.08 1020.68 1020.20 1019.67 1019.10 1018.52 1017.94 1017.38 1016.86 1016.39 1015.97 1015.59 1015.26 1014.94 1014.64 1014.33 1013.99 1013.62 1013.22 1012.76 1012.28 1011.75 1011.20 1010.63 1010.05
1018.82 1019.35 1019.80 1020.16 1020.44 1020.65 1020.80 1020.91 1020.98 1021.04 1021.07 1021.09 1021.09 1021.07 1021.00 1020.89 1020.71 1020.47 1020.15 1019.75 1019.29 1018.77 1018.21 1017.64 1017.07 1016.52 1016.02 1015.56 1015.16 1014.80 1014.48 1014.19 1013.91 1013.62 1013.31 1012.96 1012.56 1012.13 1011.66 1011.16 1010.64 1010.10 1009.54
1018.12 1018.66 1019.10 1019.46 1019.74 1019.93 1020.06 1020.15 1020.19 1020.20 1020.20 1020.18 1020.14 1020.09 1020.00 1019.87 1019.69 1019.45 1019.14 1018.77 1018.33 1017.85 1017.33 1016.79 1016.25 1015.73 1015.25 1014.82 1014.43 1014.09 1013.78 1013.50 1013.22 1012.93 1012.62 1012.28 1011.89 1011.47 1011.02 1010.54 1010.04 1009.53 1009.00
1017.35 1017.88 1018.33 1018.69 1018.96 1019.15 1019.27 1019.34 1019.36 1019.35 1019.31 1019.26 1019.20 1019.11 1019.00 1018.86 1018.68 1018.45 1018.16 1017.82 1017.42 1016.98 1016.51 1016.02 1015.53 1015.05 1014.61 1014.20 1013.83 1013.50 1013.19 1012.89 1012.60 1012.30 1011.97 1011.62 1011.23 1010.81 1010.36 1009.89 1009.41 1008.91 1008.40
1016.51 1017.04 1017.48 1017.84 1018.11 1018.31 1018.44 1018.50 1018.52 1018.50 1018.45 1018.39 1018.30 1018.20 1018.08 1017.93 1017.75 1017.53 1017.26 1016.95 1016.60 1016.21 1015.79 1015.36 1014.92 1014.50 1014.09 1013.71 1013.35 1013.01 1012.69 1012.38 1012.06 1011.72 1011.36 1010.98 1010.57 1010.13 1009.67 1009.20 1008.72 1008.23 1007.72
1015.64 1016.15 1016.59 1016.95 1017.23 1017.44 1017.58 1017.66 1017.69 1017.68 1017.64 1017.58 1017.49 1017.39 1017.27 1017.12 1016.94 1016.73 1016.49 1016.21 1015.89 1015.55 1015.18 1014.80 1014.41 1014.03 1013.65 1013.29 1012.94 1012.59 1012.25 1011.90 1011.54 1011.16 1010.77 1010.34 1009.90 1009.43 1008.96 1008.47 1007.97 1007.46 1006.94
1014.77 1015.26 1015.69 1016.05 1016.34 1016.57 1016.73 1016.84 1016.90 1016.92 1016.90 1016.85 1016.78 1016.69 1016.57 1016.43 1016.26 1016.06 1015.83 1015.56 1015.28 1014.96 1014.63 1014.28 1013.93 1013.57 1013.22 1012.86 1012.51 1012.15 1011.78 1011.40 1011.00 1010.58 1010.13 1009.67 1009.19 1008.69 1008.19 1007.68 1007.15 1006.62 1006.06
1013.94 1014.42 1014.84 1015.20 1015.50 1015.75 1015.93 1016.07 1016.16 1016.21 1016.23 1016.21 1016.16 1016.08 1015.97 1015.83 1015.66 1015.46 1015.23 1014.97 1014.69 1014.39 1014.07 1013.74 1013.40 1013.06 1012.71 1012.35 1011.99 1011.61 1011.22 1010.80 1010.37 1009.91 1009.43 1008.93 1008.41 1007.89 1007.36 1006.81 1006.26 1005.69 1005.08
1013.18 1013.65 1014.06 1014.43 1014.74 1015.00 1015.21 1015.37 1015.50 1015.58 1015.62 1015.63 1015.60 1015.53 1015.42 1015.28 1015.11 1014.90 1014.66 1014.39 1014.09 1013.78 1013.46 1013.12 1012.78 1012.43 1012.07 1011.71 1011.33 1010.93 1010.51 1010.08 1009.61 1009.13 1008.62 1008.10 1007.56 1007.01 1006.46 1005.89 1005.30 1004.69 1004.03
Thickness
5711 5709 5707 5706 5704 5703 5702 5701 5699 5698 5696 5695 5694 5693 5691 5689 5687 5685 5684 5682 5680 5680 5679 5678 5677 5676 5676 5677 5676 5677 5677 5677 5676 5682 5686 5688 5689 5692 5694 5696 5699 5700 5702
5709 5708 5706 5704 5702 5701 5700 5698 5697 5696 5695 5694 5692 5690 5689 5687 5685 5683 5681 5679 5678 5677 5676 5675 5674 5674 5673 5674 5673 5673 5674 5675 5675 5675 5680 5683 5685 5688 5690 5692 5695 5698 5699
5708 5706 5704 5702 5701 5699 5698 5696 5695 5694 5693 5691 5690 5688 5686 5684 5682 5680 5679 5678 5677 5675 5673 5672 5671 5671 5670 5670 5669 5670 5671 5673 5673 5673 5675 5678 5681 5684 5686 5688 5691 5693 5695
5705 5703 5700 5699 5697 5696 5696 5694 5693 5692 5690 5689 5687 5685 5683 5681 5679 5678 5676 5675 5674 5673 5671 5669 5668 5667 5665 5665 5666 5667 5668 5669 5670 5671 5672 5674 5676 5678 5680 5682 5685 5687 5690
5703 5700 5698 5697 5695 5693 5692 5691 5689 5687 5686 5685 5684 5682 5679 5677 5675 5672 5672 5671 5671 5670 5668 5667 5665 5662 5660 5660 5661 5663 5664 5665 5666 5667 5669 5671 5672 5672 5674 5677 5678 5681 5685
5700 5697 5695 5694 5691 5689 5688 5687 5684 5682 5682 5681 5679 5677 5674 5672 5667 5665 5664 5666 5666 5666 5664 5664 5663 5661 5658 5656 5656 5656 5657 5660 5662 5663 5665 5666 5667 5668 5669 5671 5673 5675 5677
5698 5694 5691 5690 5687 5685 5683 5681 5679 5678 5677 5675 5674 5672 5670 5666 5662 5660 5659 5661 5662 5662 5661 5660 5660 5659 5656 5657 5655 5654 5655 5654 5654 5657 5659 5661 5662 5663 5664 5665 5667 5668 5670
5694 5691 5688 5685 5682 5680 5679 5676 5675 5674 5671 5670 5668 5667 5664 5661 5657 5656 5655 5658 5659 5658 5657 5657 5656 5655 5652 5651 5653 5653 5654 5654 5653 5653 5654 5655 5656 5656 5657 5658 5659 5662 5665
5689 5687 5684 5681 5677 5675 5673 5671 5670 5669 5666 5665 5663 5661 5659 5657 5652 5651 5650 5655 5655 5654 5653 5652 5651 5650 5645 5644 5646 5648 5649 5649 5648 5646 5646 5647 5647 5647 5647 5650 5652 5653 5655
5685 5683 5680 5676 5673 5670 5668 5666 5664 5663 5661 5660 5658 5657 5655 5653 5648 5645 5644 5650 5650 5650 5648 5647 5643 5641 5639 5638 5641 5642 5642 5643 5643 5643 5642 5642 5641 5642 5640 5642 5644 5645 5647
5681 5678 5674 5671 5668 5665 5662 5660 5658 5656 5655 5654 5653 5651 5650 5646 5643 5639 5638 5640 5641 5642 5642 5642 5639 5634 5632 5631 5631 5633 5633 5633 5635 5636 5636 5636 5635 5635 5635 5634 5635 5636 5638
5675 5671 5668 5665 5663 5660 5656 5653 5652 5650 5648 5648 5647 5645 5643 5641 5637 5634 5631 5630 5630 5632 5633 5633 5631 5626 5624 5623 5623 5623 5622 5623 5626 5628 5627 5627 5626 5626 5626 5626 5625 5626 5627
5668 5664 5662 5659 5656 5654 5651 5648 5646 5644 5643 5642 5641 5639 5638 5636 5632 5628 5625 5623 5622 5622 5623 5621 5619 5617 5616 5617 5615 5614 5614 5617 5617 5617 5617 5617 5616 5615 5615 5615 5616 5616 5617
5662 5659 5656 5654 5651 5648 5644 5643 5640 5639 5637 5635 5633 5632 5630 5629 5626 5623 5621 5619 5616 5615 5615 5613 5611 5610 5608 5607 5607 5608 5607 5607 5607 5606 5606 5606 5605 5605 5604 5605 5605 5607 5608
5657 5654 5650 5647 5644 5641 5638 5635 5633 5631 5629 5625 5625 5623 5621 5620 5616 5611 5609 5610 5608 5606 5604 5605 5605 5605 5604 5603 5602 5600 5598 5597 5596 5595 5594 5594 5594 5594 5595 5595 5595 5596 5597
5650 5647 5643 5639 5636 5633 5631 5628 5622 5620 5617 5614 5612 5610 5611 5607 5603 5601 5598 5597 5595 5593 5593 5596 5596 5596 5594 5593 5591 5590 5588 5586 5585 5584 5584 5583 5583 5584 5584 5585 5585 5586 5587
5643 5639 5635 5632 5629 5626 5623 5621 5619 5614 5609 5607 5604 5601 5599 5596 5593 5591 5588 5586 5584 5582 5584 5586 5586 5585 5584 5582 5580 5579 5577 5576 5574 5574 5574 5574 5574 5574 5575 5575 5575 5575 5576
5635 5630 5626 5623 5620 5618 5616 5614 5612 5609 5607 5605 5599 5594 5590 5587 5584 5581 5578 5576 5578 5576 5576 5576 5574 5573 5572 5571 5570 5568 5567 5565 5565 5564 5565 5564 5564 5565 5565 5565 5566 5565 5565
5626 5621 5618 5615 5612 5610 5607 5605 5603 5601 5599 5597 5594 5589 5582 5579 5575 5572 5569 5569 5570 5569 5567 5565 5564 5562 5561 5560 5559 5558 5557 5555 5555 5554 5555 5554 5554 5554 5555 5555 5556 5554 5554
5616 5611 5607 5605 5603 5601 5598 5596 5594 5591 5590 5587 5585 5581 5576 5572 5570 5567 5564 5563 5561 5560 5558 5556 5554 5552 5551 5549 5548 5547 5546 5545 5545 5545 5545 5545 5544 5544 5543 5544 5545 5545 5545
5607 5602 5596 5595 5594 5591 5589 5586 5584 5581 5579 5577 5574 5571 5563 5561 5561 5559 5556 5554 5552 5550 5548 5547 5545 5543 5541 5539 5538 5537 5536 5537 5536 5535 5534 5534 5534 5533 5533 5533 5534 5534 5534
5598 5595 5590 5587 5584 5581 5578 5576 5573 5571 5568 5565 5563 5559 5553 5551 5551 5549 5547 5545 5543 5540 5539 5537 5536 5534 5531 5529 5528 5527 5527 5526 5525 5525 5525 5525 5524 5524 5524 5523 5523 5523 5523
5588 5585 5581 5578 5574 5570 5567 5565 5563 5560 5557 5555 5552 5550 5546 5544 5542 5539 5537 5535 5533 5531 5528 5527 5526 5524 5522 5520 5518 5516 5516 5516 5515 5515 5514 5514 5514 5515 5514 5514 5514 5513 5513
5579 5575 5572 5568 5565 5562 5559 5556 5553 5550 5547 5544 5541 5539 5536 5534 5531 5529 5527 5525 5523 5520 5518 5516 5515 5514 5512 5509 5508 5507 5506 5505 5504 5504 5504 5504 5504 5505 5505 5504 5504 5504 5503
5569 5566 5562 5559 5555 5552 5549 5546 5543 5540 5536 5533 5531 5528 5526 5523 5521 5519 5517 5515 5512 5511 5508 5505 5504 5503 5502 5501 5499 5498 5497 5495 5493 5492 5492 5494 5494 5495 5495 5495 5495 5495 5495
5559 5556 5553 5549 5545 5542 5539 5536 5533 5529 5526 5523 5520 5517 5515 5512 5510 5508 5506 5504 5502 5500 5498 5496 5494 5493 5492 5492 5491 5490 5488 5486 5485 5483 5482 5483 5485 5486 5487 5487 5488 5487 5487